ギブス彗星

C/2008 G1 ( Gibbs )

English version
Home page
Total 6,336 html files since Dec. 4, 1995
Updated on July 17, 2008

---------------------------------------------------------------------

・ プロフィール

発見日 2008年4月7日
発見光度 19.4等
発見者 A. R. Gibbs (Mt. Lemmon)

・ 写真集

・ 軌道要素

T 2009 Jan. 12.0006 TT                                  MPC
q   3.989724             (2000.0)            P               Q
z  +0.002769       Peri.   63.7058      -0.2037235      +0.8026898
                   Node   215.9156      -0.7755680      +0.2170890
e   0.988952       Incl.   72.8541      +0.5974873      +0.5554831
From 142 observations 2008 Apr. 7-June 8.

・ 光度変化

        m1 = 9.5 + 5 logΔ + 10.0 log r

---------------------------------------------------------------------

軌道要素はM.P.E.C. 2008-L35に掲載されたものです。
光度グラフはComet for Windowsで作成したものです。

---------------------------------------------------------------------

Copyright(C) 1995-2008 Seiichi Yoshida (comet@aerith.net). All rights reserved.